Theta_e
341 345 344 347 351 351 350 350 351 353 356 358 359 358 358 358 356 354 352 351 352 351 349 347 348 349 350 352 352 352 355 353 353
346 345 345 346 349 350 350 350 351 355 356 357 358 357 358 358 357 356 351 351 351 351 350 347 349 349 351 351 351 352 353 353 351
341 345 346 347 348 349 349 350 351 354 354 357 357 356 358 358 357 357 354 352 351 350 350 349 348 350 351 351 351 353 352 349 348
345 347 350 346 348 348 349 350 351 353 354 355 357 356 356 357 357 357 356 352 352 352 352 350 351 350 351 351 351 349 349 349 348
347 348 350 351 346 349 350 351 351 352 353 354 357 356 357 357 357 356 356 354 352 352 352 352 351 351 352 352 349 347 349 352 352
349 349 349 351 353 352 351 352 352 353 353 353 354 356 356 356 356 356 355 355 353 352 353 353 352 351 350 351 351 349 351 352 353
349 349 349 349 351 354 354 354 353 354 355 354 354 355 355 356 356 356 355 354 354 352 353 353 352 352 351 350 351 350 351 350 352
348 348 347 349 349 351 352 354 355 356 356 356 355 357 358 358 358 357 356 356 356 354 353 353 353 353 350 350 350 350 351 351 352
346 345 346 345 346 348 348 349 352 354 355 357 357 357 358 358 360 359 359 358 358 355 354 354 354 352 350 350 349 348 350 351 353
340 340 340 340 342 343 345 345 346 348 355 353 357 358 359 360 360 360 360 359 359 358 356 354 355 354 352 351 352 351 351 350 351
335 335 335 336 336 337 340 343 344 345 351 355 354 356 358 359 360 360 360 360 360 359 357 356 355 354 352 353 353 351 351 350 351
333 333 332 332 332 332 334 339 343 344 347 356 339 333 337 355 359 360 360 361 361 360 359 359 357 356 355 355 354 351 350 351 351
329 328 329 330 331 330 331 334 337 343 345 348 353 344 349 352 358 359 359 360 361 361 360 360 358 357 357 357 357 355 352 351 350
328 328 329 328 327 329 330 330 333 338 342 346 348 350 352 354 357 358 358 358 359 359 360 359 359 359 358 357 356 357 354 352 351
329 329 328 328 329 328 328 330 330 334 337 339 344 346 348 355 357 357 357 357 358 357 357 359 359 359 357 357 357 354 355 353 351
329 328 328 328 330 329 328 328 330 331 334 336 338 342 346 347 352 355 356 356 355 353 355 354 354 357 357 355 356 358 355 354 353
330 328 328 329 330 330 331 330 329 331 332 333 335 337 343 345 349 352 354 353 354 355 353 354 354 356 354 349 348 353 353 350 352
331 329 329 329 329 330 330 330 330 330 331 331 333 335 337 343 344 351 354 353 354 353 354 351 352 349 344 338 337 345 341 351 347
330 330 329 329 330 330 329 329 329 330 330 331 332 333 334 338 342 349 347 347 338 334 335 344 349 346 343 345 339 340 344 349 347
329 329 329 329 330 330 329 328 329 329 330 330 331 332 333 336 341 346 342 344 338 344 331 333 338 347 338 335 345 341 341 348 347
Wind_Speed
3 7 12 15 18 21 25 26 28 27 29 29 28 28 27 24 22 20 19 20 20 21 19 22 18 23 21 18 16 15 13 12 10
6 3 5 12 16 21 23 26 28 29 29 30 29 29 26 24 24 23 20 21 21 18 19 22 19 24 22 21 19 18 17 16 13
9 8 3 8 14 21 23 25 26 27 30 30 30 28 26 26 25 24 21 20 22 22 20 22 19 21 20 21 20 19 18 18 17
11 12 10 8 9 16 20 21 23 26 28 29 29 29 28 26 26 25 23 21 21 21 21 19 20 21 22 22 19 20 20 19 17
9 11 11 12 5 8 10 18 20 23 25 27 28 28 27 28 26 26 25 25 22 22 22 21 21 19 20 20 21 22 21 20 19
9 11 12 12 13 9 4 10 15 18 21 24 26 28 29 28 27 27 26 25 24 24 24 24 23 24 23 23 22 21 21 22 22
10 10 11 11 10 9 11 9 9 12 17 20 22 26 29 29 29 29 28 27 27 27 27 26 26 25 25 24 23 23 23 22 21
10 11 12 11 10 9 10 9 5 10 13 16 20 21 23 25 28 28 28 27 29 27 27 28 27 25 25 25 24 24 22 20 22
10 11 12 11 11 11 11 10 9 7 10 14 18 20 24 24 24 27 27 26 27 28 27 26 27 27 27 25 25 25 24 23 20
9 10 11 12 11 11 13 12 10 10 13 10 14 19 21 24 25 26 27 27 26 27 28 27 26 27 27 26 25 23 21 20 21
9 10 11 10 12 14 15 14 12 14 11 11 9 12 21 24 25 26 26 27 28 27 27 28 28 28 28 27 27 27 26 25 21
11 11 12 13 14 15 15 14 15 13 15 7 13 7 32 30 25 25 26 27 28 28 28 28 28 29 29 30 29 29 30 28 24
14 17 17 17 18 18 16 15 15 14 12 15 8 11 27 32 24 25 25 26 27 28 28 28 28 28 29 31 30 30 30 31 26
20 21 21 23 22 20 20 17 16 14 14 12 8 13 20 25 20 24 24 26 26 26 27 28 27 26 26 28 30 26 31 31 29
20 21 25 26 25 23 22 20 19 18 15 15 14 16 16 17 20 21 23 25 24 23 24 24 24 24 24 26 25 27 26 29 31
20 27 25 29 28 25 25 22 21 21 20 18 19 17 16 17 19 21 23 24 26 25 23 25 27 24 25 24 19 18 27 25 30
21 26 19 24 26 27 24 24 24 24 22 20 20 20 19 17 14 14 18 24 25 30 28 28 24 23 21 16 10 10 11 15 26
23 25 27 26 25 27 28 26 25 26 25 21 20 20 20 17 18 12 15 24 23 24 25 23 27 27 21 18 20 26 11 18 20
28 28 29 27 28 29 28 26 27 26 26 24 20 19 19 20 13 10 10 8 11 16 18 24 25 23 13 9 20 28 23 30 29
28 31 29 29 26 29 26 28 27 28 26 25 23 20 19 20 12 8 7 11 11 5 8 26 14 27 28 25 28 37 31 32 27
Wind_Direction
151 188 177 185 190 196 196 200 194 194 196 200 200 203 208 210 211 214 216 214 214 218 213 218 219 208 209 212 215 215 214 210 217
100 211 229 189 187 200 198 201 197 197 198 199 203 203 204 206 208 214 214 210 220 225 221 218 206 206 207 213 213 214 216 222 224
43 43 352 252 195 196 203 202 201 200 202 201 203 203 203 206 206 209 217 213 210 222 223 220 202 204 211 213 214 212 215 223 221
28 26 11 333 233 206 199 204 203 200 206 203 206 204 203 205 206 206 209 213 215 216 223 215 217 204 207 214 211 214 213 226 241
39 24 15 1 325 218 216 206 206 205 206 208 207 207 204 206 207 206 205 209 210 212 217 222 211 219 214 214 213 213 215 221 230
41 28 22 22 14 360 223 242 222 213 216 214 208 209 206 208 207 206 210 208 208 207 210 215 218 209 217 218 218 221 221 225 227
25 31 30 26 31 24 354 329 272 236 222 225 222 210 211 207 208 208 210 206 207 205 205 208 215 215 211 217 219 225 229 231 235
24 26 23 21 24 20 20 6 299 273 246 237 229 222 214 210 205 209 209 206 201 207 202 206 208 212 213 215 218 225 229 230 232
17 12 12 13 17 15 12 6 350 323 262 246 241 235 224 214 205 208 211 210 203 201 206 206 205 208 211 213 223 228 229 222 232
13 5 359 358 356 1 359 355 350 341 323 255 243 246 238 224 211 207 211 210 207 202 204 205 207 208 209 213 220 228 232 231 228
353 357 344 349 348 342 342 333 350 339 329 298 229 258 244 236 221 210 209 208 207 206 204 205 203 206 209 213 216 222 232 233 232
330 333 323 329 330 328 324 330 332 340 326 303 252 242 307 247 227 219 211 210 208 206 207 208 206 205 206 210 217 219 222 228 229
313 311 312 316 313 313 315 324 326 327 319 315 300 236 258 259 228 219 218 213 212 210 210 212 210 211 213 210 212 217 220 223 227
300 303 305 303 300 296 302 304 313 310 305 295 303 289 250 246 237 228 215 219 212 211 211 216 214 212 212 215 214 218 222 224 219
296 296 298 297 288 283 286 292 297 297 298 301 298 287 284 278 246 235 219 217 213 207 211 212 211 212 212 215 215 214 223 227 226
294 294 289 287 285 280 278 275 278 285 288 295 299 295 292 289 280 265 232 222 218 204 211 211 216 211 217 220 202 216 214 230 231
299 294 291 296 295 291 276 272 270 271 276 281 291 299 296 292 286 282 256 236 224 213 207 208 223 212 220 213 193 199 238 243 234
290 294 290 280 281 278 280 277 264 262 269 272 276 287 292 286 279 269 260 237 229 228 238 232 205 207 203 202 204 215 229 248 228
286 287 285 281 274 273 271 269 271 258 260 269 269 275 279 276 275 266 276 243 271 277 284 304 202 201 205 249 243 229 207 233 228
294 287 285 277 272 272 264 262 262 269 258 261 262 261 267 273 262 264 272 259 215 247 334 307 247 189 224 219 238 235 246 214 201